Location: Solstice Park, West Seattle
(47.5363°N, 122.3905°W)
Time: 12:06:13
(UTC-07:00)

ISS - Pass Details

Date: 18 May 2021
Orbit: 417 x 422 km, 51.6° (Epoch: 22 June)

Event Time Altitude Azimuth Distance (km) Brightness Sun altitude
Rises 21:35:35 0° 244° (WSW) 2,355 0.4 -7.8°
Reaches altitude 10° 21:37:40 10° 244° (WSW) 1,495 -0.7 -8.1°
Maximum altitude 21:41:02 88° 156° (SSE) 424 -3.8 -8.5°
Drops below altitude 10° 21:44:25 10° 66° (ENE) 1,504 -1.2 -8.9°
Sets 21:46:31 0° 66° (ENE) 2,371 -0.2 -9.2°
